Tracking 29892 objects as of 21-Nov-2024
HD Live streaming from Space Station
objects crossing your sky now

STARLINK-2229

Track STARLINK-2229 now!
10-day predictions
STARLINK-2229 is classified as:


NORAD ID: 47992
Int'l Code: 2021-024R
Perigee: 486.6 km
Apogee: 488.1 km
Inclination: 53.1 °
Period: 94.2 minutes
Semi major axis: 6858 km
RCS: Unknown
Launch date: March 24, 2021
Source: United States (US)
Launch site: AIR FORCE EASTERN TEST RANGE (AFETR)
Your satellite tracking list
Your tracking list is empty




NASA's NSSDC Master Catalog

Two Line Element Set (TLE):
1 47992U 21024R   24326.25001157  .00484406  00000-0  16134-1 0  9990
2 47992  53.0510 219.8983 0001080 103.5931 187.2112 15.28523343203821
Source of the keplerian elements: AFSPC